Location: Arapaho Elementary School
(32.9607°N, 96.7625°W)
Time: 17:37:43
(UTC+00:00)

H-2A R/B (2) - Pass Details

Date: 07 July 2022
Orbit: 427 x 34396 km, 28.9° (Epoch: 09 August)

Event Time Altitude Azimuth Distance (km) Brightness Sun altitude
Rises 06:25:47 0° 110° (ESE) 40,189 10.5 -34.4°
Reaches altitude 10° 07:45:08 10° 112° (ESE) 36,249 10.4 -31.8°
Maximum altitude 09:27:38 18° 107° (ESE) 24,803 9.9 -20.5°
Drops below altitude 10° 10:18:31 10° 91° (E) 16,121 9.5 -12.6°
Sets 10:33:35 0° 82° (E) 13,488 9.6 -10.0°
